Location: Herrenberg
(48.5917°N, 8.8725°E)
Time: 02:28:40
(UTC+00:00)

Daily predictions for brighter satellites

Satellite Brightness Start Highest point End
(mag) Time Altitude Azimuth Time Altitude Azimuth Time Altitude Azimuth
Cosmos 2227 Rocket 2.2 00:05:20 28° SSW 00:08:25 88° ESE 00:14:08 10° NNE
Cosmos 1892 3.3 00:09:05 32° WSW 00:10:04 41° WNW 00:13:25 10° N
Cosmos 990 Rocket 4.0 00:08:24 31° S 00:10:50 73° ESE 00:15:58 10° NNE
IDEFIX/ARIANE 42P 4.4 00:06:52 10° NE 00:10:55 22° E 00:14:28 12° SE
Cosmos 332 Rocket 3.9 00:09:47 29° SW 00:12:16 69° WNW 00:17:10 10° NNE
SL-12 R/B(2) 4.4 00:09:27 24° SSW 00:14:51 71° SE 00:24:34 10° NE
CENTAUR R/B 2.5 00:12:18 28° SSW 00:15:28 68° SE 00:22:28 10° NE
CZ-2C R/B 4.4 00:11:54 10° ESE 00:16:19 28° ENE 00:20:50 10° N
CZ-2D R/B 4.1 00:14:40 10° NE 00:18:22 19° E 00:22:00 10° SE
GEOS 3 Rocket 3.6 00:13:34 10° NE 00:18:46 83° NW 00:22:02 23° SW
Meteor 1-21 Rocket 4.3 00:18:17 27° S 00:21:32 78° E 00:27:14 10° NNE
H-2A R/B 3.1 00:18:00 10° N 00:21:55 36° WNW 00:24:02 22° WSW
Cosmos 1975 Rocket 3.5 00:21:39 28° SSE 00:23:42 55° E 00:28:01 10° NNE
Cosmos 1538 Rocket 4.0 00:19:05 10° NNW 00:24:16 71° WSW 00:27:12 26° S
SL-4 R/B 3.0 00:23:13 10° W 00:26:24 29° SW 00:26:24 29° SW
Cosmos 2074 Rocket 4.4 00:24:31 23° SW 00:28:14 53° WNW 00:34:20 10° N
Cosmos 2297 Rocket 3.2 00:24:23 14° WSW 00:28:50 40° NW 00:34:11 10° NNE
Cosmos 2219 3.2 00:27:36 27° SSW 00:30:43 76° ESE 00:36:21 10° NNE
Cosmos 2341 Rocket 4.4 00:28:16 21° SSE 00:32:27 59° E 00:38:34 10° NNE
Cosmos 2084 Rocket 4.0 00:29:51 20° WSW 00:32:37 53° NW 00:36:40 10° NE
Cosmos 1455 Rocket 3.1 00:31:00 10° NNW 00:35:26 73° W 00:37:36 30° S
Aureole 1 Rocket 2.7 00:38:34 36° SSW 00:39:59 80° ESE 00:44:22 10° NNE
Cosmos 1825 3.9 00:42:47 16° W 00:44:05 19° WNW 00:46:36 10° NNW
Cosmos 372 Rocket 4.3 00:42:35 24° S 00:45:36 59° ESE 00:50:45 10° NNE
ADEOS II 4.0 00:42:03 10° NE 00:46:02 21° E 00:50:00 10° SE
Meteor 2-1 Rocket 4.3 00:42:55 10° NNW 00:48:53 89° WSW 00:53:19 18° S
Cosmos 923 Rocket 4.0 00:47:04 10° NNW 00:52:22 89° WSW 00:56:51 14° SSE
Cosmos 1025 Rocket 3.8 00:50:34 24° SW 00:52:42 40° WNW 00:56:47 10° N
CRYOSAT 2 4.5 00:50:21 10° N 00:55:14 67° W 00:58:05 25° SSW
BREEZE-M DEB (TANK) 2.4 00:54:07 10° WNW 00:58:37 36° SW 00:58:59 34° SSW
Resurs 1-4 Rocket 3.0 00:54:00 10° NNE 00:58:59 41° E 01:03:09 14° SSE
NOSS 3-2 (A) 3.2 00:56:57 23° SW 01:00:24 86° SE 01:06:41 10° NE
Cosmos 1937 Rocket 3.6 00:58:06 23° S 01:01:26 69° ESE 01:06:40 10° NNE
Cosmos 1606 2.4 00:58:31 10° N 01:02:06 88° W 01:04:04 25° S
Cosmos 2263 Rocket 2.1 00:58:49 23° SSW 01:02:25 88° WNW 01:08:02 10° NNE
CZ-4C R/B 3.8 00:59:40 10° W 01:04:06 31° NNW 01:09:34 10° NE
Cosmos 1898 Rocket 3.4 01:01:19 24° SSW 01:04:33 85° WNW 01:09:46 10° NNE
NOSS 3-2 (C) 3.7 01:03:08 21° S 01:06:24 47° ESE 01:12:14 10° NE
Orbus 7S? 2.9 01:04:39 10° NW 01:07:21 83° NE 01:11:25 10° SE
MOZ.5/SAFIR/RUBIN 5/SL-8 3.8 01:05:48 21° S 01:08:52 65° WSW 01:13:29 10° NNW
Cosmos 2218 Rocket 4.0 01:04:28 19° S 01:09:09 84° E 01:15:21 10° N
Helios 1A Rocket 3.6 01:12:04 24° SW 01:13:29 32° W 01:16:56 10° NNW
BlueWalker 3 3.3 01:10:56 10° WNW 01:14:29 39° N 01:18:02 10° ENE
Cosmos 2366 rocket 4.0 01:11:40 19° S 01:16:23 84° W 01:22:40 10° N
Cosmos 1461 2.8 01:14:31 25° SSW 01:16:41 66° SE 01:20:33 10° NE
Iridium 921 4.5 01:14:40 23° S 01:16:42 77° E 01:20:09 10° N
Cosmos 1844 Rocket 4.0 01:17:43 10° SSE 01:22:28 31° ESE 01:27:18 10° NE
BREEZE-M DEB (TANK) 2.8 01:25:57 23° S 01:25:57 23° S 01:28:01 10° SSE
MSX 3.9 01:22:50 10° NNE 01:28:37 80° ESE 01:33:23 15° SSW
Cosmos 1680 Rocket 3.7 01:29:33 10° NNW 01:34:37 54° WSW 01:39:26 11° S
ALOS 3.8 01:30:58 10° NNE 01:35:03 30° E 01:39:06 10° SSE
Cosmos 1818 3.8 01:30:36 10° NW 01:35:53 50° WSW 01:41:06 10° SSE
Cosmos 2112 Rocket 4.0 01:31:40 10° NNW 01:36:47 61° WSW 01:41:52 10° S
SL-16 R/B 3.4 01:33:45 10° NW 01:38:12 24° WSW 01:41:09 16° SW
SL-16 R/B 3.0 01:32:19 10° SSE 01:38:28 65° ENE 01:44:39 10° N
Cosmos 1603 3.8 01:37:41 10° NNW 01:43:29 88° ENE 01:49:13 10° SSE
Cosmos 1869 4.3 01:41:32 10° NNW 01:44:43 27° W 01:46:40 17° SW
Cosmos 1544 Rocket 4.4 01:42:51 10° NNW 01:46:55 36° W 01:49:57 16° SSW
USA 234 4.0 01:41:06 10° E 01:47:28 57° NNE 01:53:51 10° NW
COSMOS 2441 4.4 01:43:12 10° NNE 01:48:02 81° ESE 01:52:26 12° SSW
Meteor 1-28 Rocket 3.4 01:45:15 10° SSE 01:48:44 65° ENE 01:52:16 10° N
Cosmos 2082 4.4 01:45:35 13° SW 01:50:23 45° NW 01:55:48 10° NNE
IDEFIX/ARIANE 42P 2.8 01:45:39 10° N 01:50:49 59° WNW 01:55:13 14° SSW
Cosmos 2228 3.6 01:48:27 10° NNW 01:52:31 41° W 01:55:49 14° SSW
Cosmos 2227 Rocket 4.1 01:48:56 10° W 01:53:15 22° NW 01:57:35 10° N
Cosmos 1943 3.4 01:48:09 10° NW 01:53:36 52° WSW 01:59:01 10° S
CZ-2C R/B 3.1 01:50:27 10° NNE 01:55:58 85° WNW 02:00:50 12° SSW
CZ-2C R/B 2.9 01:51:20 11° S 01:56:18 50° W 02:01:34 10° NNW
Cosmos 1437 Rocket 2.6 01:53:28 14° SSW 01:56:43 85° W 02:00:31 10° N
CZ-2D R/B 2.2 01:53:35 10° N 01:58:56 71° WNW 02:03:47 12° SSW
FENGYUN 3A 3.7 01:55:52 10° NNE 02:01:17 84° ESE 02:06:40 10° SSW
Cosmos 1727 Rocket 4.2 01:58:17 10° NNW 02:04:29 60° W 02:10:42 10° S
CENTAUR R/B 3.8 02:00:54 10° W 02:06:39 39° NNW 02:13:42 10° NE
H-2A R/B 4.3 02:05:01 10° N 02:08:41 36° WNW 02:12:02 12° SW
Cosmos 2239 Rocket 4.5 02:02:48 10° S 02:08:58 85° W 02:15:09 10° N
Envisat 4.4 02:05:36 10° NNE 02:10:14 35° E 02:14:51 10° SSE
Cosmos 1048 Rocket 4.0 02:06:25 10° NNW 02:11:39 88° WSW 02:16:56 10° SSE
USA 238 DEB 3.7 02:06:34 12° SSW 02:12:26 74° SE 02:19:11 10° NE
USA 238 3.7 02:06:36 12° SSW 02:12:28 73° SE 02:19:15 10° NE
NPP 4.4 02:10:13 10° N 02:15:14 41° WNW 02:20:14 10° SW
ASTEX 1 3.4 02:15:51 10° S 02:20:41 66° W 02:25:33 10° N
Cosmos 1606 Rocket 3.8 02:18:12 10° NNW 02:22:34 54° W 02:26:52 10° S
Cosmos 1125 Rocket 4.2 02:18:15 10° S 02:23:20 51° ESE 02:28:29 10° NNE
Cosmos 1867 3.6 02:18:38 10° SW 02:24:04 85° SE 02:29:36 10° NE
CZ-2C R/B 4.1 02:20:31 10° NE 02:24:28 28° E 02:28:24 10° SSE
Cosmos 921 Rocket 3.2 02:20:55 10° NNW 02:25:01 48° WSW 02:29:02 10° S
ADEOS II 2.3 02:20:53 10° N 02:26:04 61° WNW 02:31:13 10° SSW
BREEZE-M DEB (TANK) 4.4 02:22:07 10° SSW 02:27:56 22° SSE 02:30:40 10° ESE
Alouette 2 Rocket 3.8 02:23:28 10° S 02:28:07 68° ESE 02:31:46 10° NNE
Cosmos 494 Rocket 4.3 02:23:28 10° NNW 02:28:30 48° WSW 02:33:30 10° S
Cosmos 1844 3.8 02:28:23 10° SSW 02:34:10 90° WNW 02:40:01 10° NNE
Cosmos 1238 Rocket 2.8 02:34:14 10° N 02:37:46 65° E 02:40:52 10° SSE
USA 81 4.1 02:32:50 10° N 02:38:08 81° W 02:43:24 10° S
Cosmos 1726 Rocket 3.9 02:33:51 10° NNW 02:38:09 50° W 02:42:24 10° SSW
Resurs 1-4 Rocket 3.1 02:34:01 10° N 02:38:41 33° WNW 02:43:20 10° SW
Cosmos-2242 4.4 02:36:57 10° N 02:41:05 42° ENE 02:45:10 10° SSE
